TimeCST,TemperatureF,Dew PointF,Humidity,Sea Level PressureIn,VisibilityMPH,Wind Direction,Wind SpeedMPH,Gust SpeedMPH,PrecipitationIn,Events,Conditions,WindDirDegrees,DateUTC
12:52 AM,21.9,12.0,66,30.37,10.0,South,12.7,23.0,N/A,,Overcast,180,2013-12-25 06:52:00
1:52 AM,23.0,12.9,65,30.35,10.0,South,11.5,-,N/A,,Overcast,190,2013-12-25 07:52:00
2:52 AM,23.0,12.9,65,30.34,10.0,South,15.0,-,N/A,,Overcast,190,2013-12-25 08:52:00
3:52 AM,23.0,14.0,68,30.32,10.0,South,11.5,-,N/A,,Overcast,180,2013-12-25 09:52:00
4:21 AM,24.8,14.0,64,30.28,10.0,South,12.7,-,N/A,,Overcast,190,2013-12-25 10:21:00
4:52 AM,24.1,15.1,69,30.31,10.0,SSW,11.5,-,N/A,,Overcast,200,2013-12-25 10:52:00
5:52 AM,24.1,16.0,71,30.32,5.0,SSW,9.2,-,0.00,Snow,Light Snow,200,2013-12-25 11:52:00
6:52 AM,24.1,17.1,75,30.31,10.0,SSW,9.2,-,0.00,,Overcast,210,2013-12-25 12:52:00
7:20 AM,24.8,17.6,74,30.28,10.0,SSW,9.2,-,N/A,,Overcast,210,2013-12-25 13:20:00
7:52 AM,25.0,18.0,75,30.31,10.0,SW,6.9,-,N/A,,Overcast,220,2013-12-25 13:52:00
8:52 AM,25.0,19.0,78,30.32,10.0,SW,8.1,-,N/A,,Overcast,220,2013-12-25 14:52:00
9:52 AM,26.1,21.0,81,30.32,10.0,SSW,8.1,-,N/A,,Overcast,210,2013-12-25 15:52:00
10:52 AM,27.0,23.0,85,30.31,10.0,SW,8.1,-,N/A,,Overcast,220,2013-12-25 16:52:00
11:52 AM,28.0,24.1,85,30.28,8.0,SW,8.1,-,N/A,,Overcast,230,2013-12-25 17:52:00
12:52 PM,30.0,25.0,82,30.25,8.0,SW,9.2,-,N/A,,Overcast,220,2013-12-25 18:52:00
1:52 PM,30.0,26.1,85,30.22,8.0,SW,8.1,-,N/A,,Overcast,220,2013-12-25 19:52:00
2:09 PM,30.2,26.6,86,30.20,8.0,SW,9.2,-,N/A,,Overcast,220,2013-12-25 20:09:00
2:52 PM,30.9,27.0,85,30.22,10.0,WSW,11.5,-,N/A,,Overcast,240,2013-12-25 20:52:00
3:52 PM,30.9,27.0,85,30.23,8.0,West,12.7,-,N/A,,Overcast,260,2013-12-25 21:52:00
4:52 PM,30.9,27.0,85,30.22,9.0,SW,9.2,-,N/A,,Overcast,230,2013-12-25 22:52:00
5:52 PM,30.9,28.0,89,30.24,8.0,WSW,11.5,-,N/A,,Overcast,250,2013-12-25 23:52:00
6:52 PM,30.9,26.1,82,30.25,10.0,West,15.0,25.3,N/A,,Overcast,280,2013-12-26 00:52:00
7:26 PM,30.2,26.6,86,30.23,10.0,West,12.7,-,N/A,,Overcast,270,2013-12-26 01:26:00
7:52 PM,30.9,27.0,85,30.25,9.0,West,9.2,-,N/A,,Overcast,260,2013-12-26 01:52:00
8:52 PM,30.9,27.0,85,30.26,9.0,West,11.5,-,0.00,,Overcast,260,2013-12-26 02:52:00
9:52 PM,30.9,27.0,85,30.26,10.0,West,11.5,-,N/A,,Overcast,280,2013-12-26 03:52:00
10:15 PM,30.2,26.6,86,30.24,10.0,West,9.2,-,N/A,,Overcast,270,2013-12-26 04:15:00
10:52 PM,30.9,27.0,85,30.26,10.0,West,10.4,-,N/A,,Overcast,270,2013-12-26 04:52:00
11:52 PM,30.9,27.0,85,30.27,10.0,West,10.4,-,N/A,,Overcast,260,2013-12-26 05:52:00